Skip Page Navigation
NASA JPL Caltech
NASA Logo - Jet Propulsion Laboratory + View the NASA Portal
+ Center for Near-Earth Object Studies
JPL Home Earth Solar System Stars & Galaxies Technology
JPL Solar System Dynamics
BODIES ORBITS EPHEMERIDES TOOLS PHYSICAL DATA DISCOVERY FAQ SITE MAP
JPL Small-Body Database Browser
Search: [ help ]  
382734 (2003 AZ63)
Classification: Main-belt Asteroid          SPK-ID: 2382734
Ephemeris | Orbit Diagram | Orbital Elements | Mission Design | Physical Parameters | Discovery Circumstances | Close-Approach Data ]

[ show orbit diagram ]
Orbital Elements at Epoch 2459000.5 (2020-May-31.0) TDB
Reference: JPL 13 (heliocentric ecliptic J2000)
 Element Value Uncertainty (1-sigma)   Units 
e .1860366401928704 7.7064e-08  
a 3.09510808202648 4.6444e-08 au
q 2.519304573412474 2.3391e-07 au
i 19.25594755787137 9.0066e-06 deg
node 98.96718817923981 3.0352e-05 deg
peri 22.95272738680599 4.3446e-05 deg
M 72.25575667196789 3.1411e-05 deg
tp 2458601.307743357089
(2019-Apr-27.80774336)
0.00016885 TDB
period 1988.896373251892
5.45
4.4766e-05
1.226e-07
d
yr
n .1810049054548738 4.0741e-09 deg/d
Q 3.670911590640485 5.5084e-08 au
  Orbit Determination Parameters
   # obs. used (total)      118  
   data-arc span      6320 days (17.30 yr)  
   first obs. used      2003-01-08  
   last obs. used      2020-04-28  
   planetary ephem.      DE431  
   SB-pert. ephem.      SB431-N16  
   condition code      0  
   norm. resid. RMS      .61241  
   source      ORB  
   producer      Otto Matic  
   solution date      2020-May-22 00:43:51  

Additional Information
 Earth MOID = 1.54535 au 
 Jupiter MOID = 1.5256 au 
 T_jup = 3.112 
[ show covariance matrix ]

Ephemeris | Orbit Diagram | Orbital Elements | Mission Design | Physical Parameters | Discovery Circumstances | Close-Approach Data ]

Physical Parameter Table
Parameter Symbol Value Units Sigma Reference Notes
absolute magnitude H 15.8   n/a MPO471931  

382734 (2003 AZ63)          Discovered 2003-Jan-08 by LINEAR at Socorro
Reference: Last Updated: 2014-01-21

[ show close-approach data ]
Ephemeris | Orbit Diagram | Orbital Elements | Mission Design | Physical Parameters | Discovery Circumstances | Close-Approach Data ]
ABOUT SSD CREDITS/AWARDS PRIVACY/COPYRIGHT GLOSSARY LINKS
FirstGov 2020-Jul-13 09:43 UT
(server date/time)  
NASA Home Page
Site Manager:   Ryan S. Park
Webmaster  Alan B. Chamberlin